Location: Centerville
(32.8776°N, 96.6203°W)
Time: 02:05:03
(UTC+00:00)

Cosmos 1025 Rocket - Pass Details

Date: 17 June 2021
Orbit: 593 x 619 km, 82.5° (Epoch: 27 July)

Event Time Altitude Azimuth Distance (km) Brightness Sun altitude
Exits shadow 03:37:23 39° 85° (E) 922 3.6 -20.7°
Drops below altitude 10° 03:41:17 10° 23° (NNE) 1,980 6.0 -21.2°
Sets 03:43:37 0° 16° (NNE) 2,885 7.0 -21.5°
